{"data":{"norad_id":66128,"epoch":"2026-05-25T00:21:55.994688Z","epoch_age_seconds":63973,"freshness":"FRESH","line1":"1 66128U 25237Q   26145.01523142  .00031239  00000+0  10616-2 0  9991","line2":"2 66128  53.1580  45.2872 0000636  48.0915 312.0140 15.30223609 34297","mean_motion":15.30223609,"eccentricity":6.36e-5,"inclination_deg":53.158,"raan_deg":45.2872,"arg_perigee_deg":48.0915,"mean_anomaly_deg":312.014,"bstar":0.0010616,"rev_number":3429,"period_min":94.103893805497,"perigee_km":474.70870939883,"apogee_km":475.58044681557,"semimajor_km":6853.2815781072,"source":"CELESTRAK","updated_at":"2026-05-25T13:38:21.064832Z"}}